Time,TemperatureF,DewpointF,PressureIn,WindDirection,WindDirectionDegrees,WindSpeedMPH,WindSpeedGustMPH,Humidity,HourlyPrecipIn,Conditions,Clouds,dailyrainin,SoftwareType,DateUTC
2016-02-06 00:34:00,28.0,26.0,30.45,ESE,107,0.0,2.0,91,-99.99,,,-99.99,,2016-02-06 08:34:00,
2016-02-06 00:44:00,28.0,26.0,30.45,East,101,1.0,2.0,92,-99.99,,,-99.99,,2016-02-06 08:44:00,
2016-02-06 01:03:00,29.0,27.0,30.45,SE,126,2.0,3.0,93,-99.99,,,-99.99,,2016-02-06 09:03:00,
2016-02-06 01:13:00,28.0,26.0,30.46,North,-9999,-999.9,0.0,93,-99.99,,,-99.99,,2016-02-06 09:13:00,
2016-02-06 01:24:00,28.0,27.0,30.46,WSW,247,1.0,2.0,94,-99.99,,,-99.99,,2016-02-06 09:24:00,
2016-02-06 01:34:00,28.0,27.0,30.46,NW,304,0.0,2.0,93,-99.99,,,-99.99,,2016-02-06 09:34:00,
2016-02-06 01:44:00,28.0,26.0,30.46,NW,318,0.0,1.0,93,-99.99,,,-99.99,,2016-02-06 09:44:00,
2016-02-06 02:03:00,27.0,26.0,30.45,ESE,120,1.0,2.0,94,-99.99,,,-99.99,,2016-02-06 10:03:00,
2016-02-06 02:13:00,28.0,26.0,30.44,SSE,158,1.0,2.0,94,-99.99,,,-99.99,,2016-02-06 10:13:00,
2016-02-06 02:23:00,27.0,26.0,30.43,South,172,2.0,3.0,94,-99.99,,,-99.99,,2016-02-06 10:23:00,
2016-02-06 02:36:00,27.0,26.0,30.43,WNW,295,1.0,3.0,94,-99.99,,,-99.99,,2016-02-06 10:36:00,
2016-02-06 02:43:00,27.0,26.0,30.43,WNW,295,1.0,3.0,94,-99.99,,,-99.99,,2016-02-06 10:43:00,
2016-02-06 03:03:00,27.0,26.0,30.43,NE,38,3.0,4.0,95,-99.99,,,-99.99,,2016-02-06 11:03:00,
2016-02-06 03:13:00,26.0,25.0,30.43,NE,52,3.0,4.0,95,-99.99,,,-99.99,,2016-02-06 11:13:00,
2016-02-06 03:34:00,26.0,25.0,30.43,ENE,61,0.0,2.0,95,-99.99,,,-99.99,,2016-02-06 11:34:00,
2016-02-06 03:43:00,25.0,24.0,30.43,SSW,213,2.0,3.0,94,-99.99,,,-99.99,,2016-02-06 11:43:00,
2016-02-06 03:50:00,27.0,26.0,30.43,North,-9999,-999.9,1.0,95,-99.99,,,-99.99,,2016-02-06 11:50:00,
2016-02-06 03:54:00,25.0,24.0,30.43,SW,220,2.0,2.0,95,-99.99,,,-99.99,,2016-02-06 11:54:00,
2016-02-06 04:03:00,26.0,25.0,30.43,SSE,166,2.0,3.0,95,-99.99,,,-99.99,,2016-02-06 12:03:00,
2016-02-06 04:13:00,26.0,25.0,30.43,SSE,147,2.0,3.0,95,-99.99,,,-99.99,,2016-02-06 12:13:00,
2016-02-06 04:23:00,27.0,26.0,30.43,South,170,1.0,2.0,95,-99.99,,,-99.99,,2016-02-06 12:23:00,
2016-02-06 04:34:00,27.0,26.0,30.43,South,170,1.0,2.0,95,-99.99,,,-99.99,,2016-02-06 12:34:00,
2016-02-06 04:44:00,27.0,26.0,30.43,North,-9999,-999.9,1.0,95,-99.99,,,-99.99,,2016-02-06 12:44:00,
2016-02-06 05:10:00,28.0,27.0,30.44,NNE,22,0.0,1.0,95,-99.99,,,-99.99,,2016-02-06 13:10:00,
2016-02-06 05:23:00,28.0,27.0,30.43,NW,304,1.0,3.0,95,-99.99,,,-99.99,,2016-02-06 13:23:00,
2016-02-06 05:34:00,28.0,27.0,30.43,NW,304,1.0,3.0,95,-99.99,,,-99.99,,2016-02-06 13:34:00,
2016-02-06 05:44:00,28.0,27.0,30.43,WNW,300,2.0,3.0,95,-99.99,,,-99.99,,2016-02-06 13:44:00,
2016-02-06 05:54:00,28.0,27.0,30.44,NNE,22,0.0,1.0,95,-99.99,,,-99.99,,2016-02-06 13:54:00,
2016-02-06 06:03:00,28.0,27.0,30.44,NNE,22,0.0,1.0,95,-99.99,,,-99.99,,2016-02-06 14:03:00,
2016-02-06 06:44:00,28.0,27.0,30.43,SE,130,0.0,1.0,95,-99.99,,,-99.99,,2016-02-06 14:44:00,
2016-02-06 06:54:00,28.0,27.0,30.43,North,-9999,-999.9,-999.0,95,-99.99,,,-99.99,,2016-02-06 14:54:00,
2016-02-06 07:03:00,28.0,27.0,30.43,NNE,26,1.0,2.0,94,-99.99,,,-99.99,,2016-02-06 15:03:00,
2016-02-06 07:10:00,29.0,28.0,30.45,ENE,62,2.0,2.0,95,-99.99,,,-99.99,,2016-02-06 15:10:00,
2016-02-06 07:13:00,28.0,26.0,30.44,NNE,25,2.0,3.0,94,-99.99,,,-99.99,,2016-02-06 15:13:00,
2016-02-06 07:23:00,28.0,27.0,30.44,NNE,26,3.0,4.0,95,-99.99,,,-99.99,,2016-02-06 15:23:00,
2016-02-06 07:44:00,28.0,27.0,30.45,NNE,14,2.0,3.0,95,-99.99,,,-99.99,,2016-02-06 15:44:00,
2016-02-06 08:04:00,29.0,28.0,30.45,ENE,62,2.0,2.0,95,-99.99,,,-99.99,,2016-02-06 16:04:00,
2016-02-06 08:40:00,32.0,29.0,30.46,South,181,4.0,5.0,91,-99.99,,,-99.99,,2016-02-06 16:40:00,
2016-02-06 08:54:00,31.0,29.0,30.46,SW,228,1.0,2.0,94,-99.99,,,-99.99,,2016-02-06 16:54:00,
2016-02-06 09:15:00,31.0,29.0,30.46,SSW,198,3.0,5.0,92,-99.99,,,-99.99,,2016-02-06 17:15:00,
2016-02-06 09:23:00,32.0,29.0,30.46,South,181,4.0,5.0,91,-99.99,,,-99.99,,2016-02-06 17:23:00,
2016-02-06 09:34:00,32.0,29.0,30.46,South,181,4.0,5.0,91,-99.99,,,-99.99,,2016-02-06 17:34:00,
2016-02-06 10:14:00,37.0,30.0,30.47,NE,43,1.0,2.0,75,-99.99,,,-99.99,,2016-02-06 18:14:00,
2016-02-06 10:24:00,37.0,29.0,30.47,NW,326,1.0,2.0,74,-99.99,,,-99.99,,2016-02-06 18:24:00,
2016-02-06 10:34:00,37.0,29.0,30.47,WNW,285,1.0,2.0,73,-99.99,,,-99.99,,2016-02-06 18:34:00,
2016-02-06 10:54:00,40.0,29.0,30.46,SSE,162,1.0,1.0,64,-99.99,,,-99.99,,2016-02-06 18:54:00,
2016-02-06 11:04:00,40.0,29.0,30.46,SSE,162,1.0,1.0,64,-99.99,,,-99.99,,2016-02-06 19:04:00,
2016-02-06 11:13:00,41.0,29.0,30.46,East,99,0.0,-999.0,62,-99.99,,,-99.99,,2016-02-06 19:13:00,
2016-02-06 11:24:00,40.0,29.0,30.45,NNW,338,1.0,2.0,65,-99.99,,,-99.99,,2016-02-06 19:24:00,
2016-02-06 11:34:00,40.0,29.0,30.45,North,357,2.0,3.0,66,-99.99,,,-99.99,,2016-02-06 19:34:00,
2016-02-06 11:44:00,40.0,30.0,30.45,NNW,345,1.0,2.0,66,-99.99,,,-99.99,,2016-02-06 19:44:00,
2016-02-06 11:54:00,42.0,30.0,30.44,NNE,27,0.0,1.0,62,-99.99,,,-99.99,,2016-02-06 19:54:00,
2016-02-06 12:04:00,46.0,30.0,30.44,SSE,164,0.0,1.0,54,-99.99,,,-99.99,,2016-02-06 20:04:00,
2016-02-06 12:13:00,46.0,30.0,30.43,SE,125,1.0,-999.0,52,-99.99,,,-99.99,,2016-02-06 20:13:00,
2016-02-06 12:36:00,45.0,29.0,30.42,North,352,1.0,3.0,53,-99.99,,,-99.99,,2016-02-06 20:36:00,
2016-02-06 12:54:00,45.0,30.0,30.42,NW,319,1.0,2.0,56,-99.99,,,-99.99,,2016-02-06 20:54:00,
2016-02-06 13:04:00,45.0,30.0,30.41,NW,311,2.0,3.0,55,-99.99,,,-99.99,,2016-02-06 21:04:00,
2016-02-06 13:13:00,46.0,30.0,30.41,NNW,338,1.0,2.0,55,-99.99,,,-99.99,,2016-02-06 21:13:00,
2016-02-06 13:34:00,47.0,30.0,30.39,NNW,338,1.0,3.0,53,-99.99,,,-99.99,,2016-02-06 21:34:00,
2016-02-06 13:44:00,48.0,31.0,30.38,NW,307,1.0,3.0,51,-99.99,,,-99.99,,2016-02-06 21:44:00,
2016-02-06 14:04:00,48.0,32.0,30.38,NW,306,2.0,3.0,52,-99.99,,,-99.99,,2016-02-06 22:04:00,
2016-02-06 14:14:00,49.0,31.0,30.37,North,351,1.0,3.0,50,-99.99,,,-99.99,,2016-02-06 22:14:00,
2016-02-06 14:24:00,49.0,29.0,30.37,NNW,332,1.0,3.0,47,-99.99,,,-99.99,,2016-02-06 22:24:00,
2016-02-06 14:34:00,48.0,30.0,30.36,NNW,342,2.0,4.0,49,-99.99,,,-99.99,,2016-02-06 22:34:00,
2016-02-06 15:03:00,48.0,31.0,30.36,NW,308,2.0,3.0,50,-99.99,,,-99.99,,2016-02-06 23:03:00,
2016-02-06 15:13:00,48.0,31.0,30.36,NW,308,2.0,-999.0,50,-99.99,,,-99.99,,2016-02-06 23:13:00,
2016-02-06 15:24:00,48.0,32.0,30.36,NW,322,2.0,3.0,53,-99.99,,,-99.99,,2016-02-06 23:24:00,
2016-02-06 15:34:00,49.0,30.0,30.36,North,357,1.0,2.0,47,-99.99,,,-99.99,,2016-02-06 23:34:00,
2016-02-06 15:44:00,51.0,27.0,30.36,North,7,1.0,2.0,39,-99.99,,,-99.99,,2016-02-06 23:44:00,
2016-02-06 15:54:00,52.0,26.0,30.36,NW,322,1.0,2.0,36,-99.99,,,-99.99,,2016-02-06 23:54:00,
2016-02-06 16:05:00,52.0,28.0,30.36,NW,304,1.0,2.0,39,-99.99,,,-99.99,,2016-02-07 00:05:00,
2016-02-06 16:13:00,53.0,29.0,30.37,SSW,202,1.0,1.0,38,-99.99,,,-99.99,,2016-02-07 00:13:00,
2016-02-06 16:33:00,53.0,28.0,30.37,SW,222,1.0,2.0,38,-99.99,,,-99.99,,2016-02-07 00:33:00,
2016-02-06 16:44:00,53.0,29.0,30.36,WNW,290,1.0,1.0,39,-99.99,,,-99.99,,2016-02-07 00:44:00,
2016-02-06 16:53:00,52.0,29.0,30.36,NW,307,1.0,2.0,41,-99.99,,,-99.99,,2016-02-07 00:53:00,
2016-02-06 17:03:00,52.0,31.0,30.36,North,356,2.0,2.0,45,-99.99,,,-99.99,,2016-02-07 01:03:00,
2016-02-06 17:12:00,52.0,32.0,30.36,North,10,1.0,2.0,46,-99.99,,,-99.99,,2016-02-07 01:12:00,
2016-02-06 17:23:00,53.0,30.0,30.36,North,0,0.0,1.0,42,-99.99,,,-99.99,,2016-02-07 01:23:00,
2016-02-06 17:34:00,53.0,29.0,30.36,NE,37,0.0,0.0,39,-99.99,,,-99.99,,2016-02-07 01:34:00,
2016-02-06 17:53:00,52.0,31.0,30.35,East,87,0.0,1.0,44,-99.99,,,-99.99,,2016-02-07 01:53:00,
2016-02-06 18:03:00,50.0,31.0,30.35,SSE,168,0.0,1.0,48,-99.99,,,-99.99,,2016-02-07 02:03:00,
2016-02-06 18:13:00,46.0,30.0,30.35,ESE,111,0.0,1.0,54,-99.99,,,-99.99,,2016-02-07 02:13:00,
2016-02-06 18:23:00,44.0,31.0,30.35,ENE,66,3.0,5.0,59,-99.99,,,-99.99,,2016-02-07 02:23:00,
2016-02-06 18:33:00,44.0,32.0,30.35,East,80,3.0,3.0,62,-99.99,,,-99.99,,2016-02-07 02:33:00,
2016-02-06 18:43:00,44.0,32.0,30.36,ESE,115,1.0,3.0,62,-99.99,,,-99.99,,2016-02-07 02:43:00,
2016-02-06 18:53:00,41.0,31.0,30.36,SSW,197,2.0,2.0,69,-99.99,,,-99.99,,2016-02-07 02:53:00,
2016-02-06 19:03:00,42.0,31.0,30.37,South,171,3.0,3.0,65,-99.99,,,-99.99,,2016-02-07 03:03:00,
2016-02-06 19:12:00,42.0,30.0,30.37,South,190,4.0,5.0,63,-99.99,,,-99.99,,2016-02-07 03:12:00,
2016-02-06 19:23:00,40.0,30.0,30.38,WSW,241,3.0,5.0,69,-99.99,,,-99.99,,2016-02-07 03:23:00,
2016-02-06 19:33:00,38.0,30.0,30.38,NNW,340,4.0,5.0,72,-99.99,,,-99.99,,2016-02-07 03:33:00,
2016-02-06 19:54:00,41.0,28.0,30.39,SW,224,2.0,3.0,59,-99.99,,,-99.99,,2016-02-07 03:54:00,
2016-02-06 20:05:00,40.0,27.0,30.38,SW,220,2.0,3.0,61,-99.99,,,-99.99,,2016-02-07 04:05:00,
2016-02-06 20:13:00,37.0,29.0,30.39,South,188,2.0,3.0,71,-99.99,,,-99.99,,2016-02-07 04:13:00,
2016-02-06 20:30:00,35.0,30.0,30.41,SE,140,3.0,4.0,82,-99.99,,,-99.99,,2016-02-07 04:30:00,
2016-02-06 20:56:00,35.0,29.0,30.41,SE,139,3.0,4.0,80,-99.99,,,-99.99,,2016-02-07 04:56:00,
2016-02-06 21:03:00,35.0,29.0,30.41,SE,139,3.0,-999.0,80,-99.99,,,-99.99,,2016-02-07 05:03:00,
2016-02-06 21:13:00,35.0,30.0,30.41,SE,140,3.0,4.0,82,-99.99,,,-99.99,,2016-02-07 05:13:00,
2016-02-06 21:23:00,35.0,30.0,30.41,SE,140,3.0,-999.0,82,-99.99,,,-99.99,,2016-02-07 05:23:00,
2016-02-06 21:54:00,33.0,29.0,30.42,South,188,2.0,3.0,85,-99.99,,,-99.99,,2016-02-07 05:54:00,